Location: Ch�ze
(42.9000°N, 0.0333°W)
Time: 00:04:21
(UTC+00:00)

SL-24 R/B - Pass Details

Date: 24 January 2021
Orbit: 625 x 1075 km, 98.0° (Epoch: 24 February)

Event Time Altitude Azimuth Distance (km) Brightness Sun altitude
Rises 17:30:08 0° 167° (SSE) 2,905 7.6 -5.5°
Reaches altitude 10° 17:32:15 10° 167° (SSE) 2,020 6.8 -5.8°
Maximum altitude 17:36:36 86° 257° (WSW) 674 4.3 -6.6°
Drops below altitude 10° 17:41:22 10° 346° (NNW) 2,199 6.8 -7.4°
Sets 17:43:45 0° 347° (NNW) 3,186 7.6 -7.8°
